Lamar, CO

5:28 AM MST on December 07, 2019 (GMT -0700)
Lamar Municipal

Weather History for KLAA - August, 2019

Change the Weather History Date:

Monday, August 26, 2019

  Actual Average Record
Temperature  
Mean Temperature 74 °F 74 °F  
Max Temperature 88 °F 89 °F 106 °F (1926)
Min Temperature 60 °F 59 °F 45 °F (1992)
Degree Days  
Heating Degree Days 0 0  
Month to date heating degree days 0 0  
Since 1 June heating degree days 16 22  
Since 1 July heating degree days 0 2  
Cooling Degree Days 9 9  
Month to date cooling degree days 376 285  
Year to date cooling degree days 1050 949  
Since 1 June cooling degree days 1028 889  
Growing Degree Days 24 (Base 50)    
Moisture  
Dew Point 55 °F    
Average Humidity 57    
Maximum Humidity 84    
Minimum Humidity 29    
Precipitation  
Precipitation 0.00 in 0.05 in 1.57 in (1986)
Month to date precipitation 0.73 2.01  
Year to date precipitation 7.23 12.10  
Sea Level Pressure  
Sea Level Pressure 29.76 in    
Wind  
Wind Speed 11 mph (NE)    
Max Wind Speed 25 mph    
Max Gust Speed 34 mph    
Visibility 10 miles    
Events      
T = Trace of Precipitation, MM = Missing Value Source: NWS Daily Summary

Daily Weather History Graph

Daily Weather History Graph

Search for Another Location

Airport or City:

Astronomy

Aug. 26, 2019 Rise Set
Actual Time 6:15 AM MDT 7:29 PM MDT
Civil Twilight 5:47 AM MDT 7:56 PM MDT
Nautical Twilight 5:15 AM MDT 8:29 PM MDT
Astronomical Twilight 4:41 AM MDT 9:03 PM MDT
Moon 1:45 AM MDT (8/26) 4:51 PM MDT (8/26)
Length of Visible Light 14h 08m
Length of Day
13h 14m
Waning Crescent, 19% of the Moon is Illuminated
Aug 26
Waning Crescent
Aug 30
New
Sep 5
First Quarter
Sep 13
Full
Sep 21
Last Quarter

Hourly Weather History & Observations

Time (MDT) Temp. Heat Index Dew Point Humidity Pressure Visibility Wind Dir Wind Speed Gust Speed Precip Events Conditions
12:53 AM 75.9 °F - 61.0 °F 60% 29.57 in 10.0 mi SSE 11.5 mph - N/A   Clear
1:53 AM 73.9 °F - 60.1 °F 62% 29.55 in 10.0 mi North 4.6 mph - N/A   Clear
2:53 AM 69.1 °F - 57.9 °F 68% 29.56 in 10.0 mi SE 12.7 mph - N/A   Clear
3:53 AM 66.9 °F - 53.1 °F 61% 29.57 in 10.0 mi WSW 9.2 mph - N/A   Clear
4:53 AM 63.0 °F - 52.0 °F 67% 29.61 in 10.0 mi WNW 6.9 mph - N/A   Clear
5:53 AM 60.1 °F - 55.0 °F 83% 29.64 in 10.0 mi WSW 6.9 mph - N/A   Clear
6:53 AM 69.1 °F - 55.0 °F 61% 29.68 in 10.0 mi North 11.5 mph 21.9 mph N/A   Clear
7:53 AM 70.0 °F - 55.0 °F 59% 29.74 in 10.0 mi Variable 6.9 mph - N/A   Clear
8:53 AM 73.0 °F - 60.1 °F 64% 29.78 in 10.0 mi North 19.6 mph - N/A   Clear
9:53 AM 77.0 °F - 57.9 °F 52% 29.80 in 10.0 mi NNE 19.6 mph 28.8 mph N/A   Clear
10:53 AM 82.0 °F 81.4 °F 55.0 °F 39% 29.80 in 10.0 mi NNE 19.6 mph 26.5 mph N/A   Clear
11:53 AM 82.9 °F 81.9 °F 54.0 °F 37% 29.81 in 10.0 mi NNE 12.7 mph 24.2 mph N/A   Clear
12:53 PM 84.9 °F - 52.0 °F 32% 29.79 in 10.0 mi North 13.8 mph 21.9 mph N/A   Clear
1:53 PM 87.1 °F - 51.1 °F 29% 29.79 in 10.0 mi NNE 11.5 mph 20.7 mph N/A   Clear
2:53 PM 87.1 °F - 52.0 °F 30% 29.79 in 10.0 mi ENE 13.8 mph - N/A   Clear
3:53 PM 87.1 °F - 52.0 °F 30% 29.79 in 10.0 mi NE 11.5 mph - N/A   Clear
4:53 PM 86.0 °F 84.0 °F 53.1 °F 32% 29.79 in 10.0 mi NE 11.5 mph - N/A   Clear
5:53 PM 84.0 °F 82.6 °F 54.0 °F 35% 29.82 in 10.0 mi ENE 13.8 mph - N/A   Clear
6:53 PM 79.0 °F - 53.1 °F 40% 29.84 in 10.0 mi ENE 11.5 mph - N/A   Clear
7:53 PM 73.9 °F - 54.0 °F 50% 29.88 in 10.0 mi ENE 8.1 mph - N/A   Clear
8:53 PM 72.0 °F - 55.0 °F 55% 29.91 in 10.0 mi East 9.2 mph - N/A   Clear
9:53 PM 69.1 °F - 55.0 °F 61% 29.94 in 10.0 mi East 9.2 mph - N/A   Clear
10:53 PM 66.9 °F - 55.9 °F 68% 29.94 in 10.0 mi East 6.9 mph - N/A   Clear
11:53 PM 63.0 °F - 55.9 °F 78% 29.95 in 10.0 mi East 5.8 mph - N/A   Clear